Wind_Speed
4 6 7 7 7 7 7 6 6 7 7 8 8 6 8 9 7 13 12 3 3 9 8 7 8 6 9 11 12 12 12 14 14 13 13 11 12 11 11 10 7 6 6 8 11 15 19 26 37 42 40 37 34 31 29 27 27 26 25 23 22 21 19 17 18 18 17 17 16 16 15 15 15 15 15 15 13 12 12 14 15 16 16 17 20 22
5 7 7 7 6 5 4 4 6 8 8 7 6 7 7 6 10 15 10 0 2 7 7 8 9 4 10 10 11 11 12 14 14 13 13 12 12 10 9 7 6 6 9 12 15 21 29 37 40 35 30 27 26 25 25 24 24 24 24 24 21 20 21 20 20 21 20 19 18 17 17 17 16 16 16 16 15 13 14 15 16 15 14 14 17 18
6 8 6 6 6 6 4 3 7 8 7 6 5 7 7 7 11 11 5 4 7 7 6 9 9 3 11 10 11 12 11 13 13 13 12 11 11 9 7 6 7 9 14 19 24 32 35 35 32 27 25 26 26 26 25 24 24 24 24 24 24 25 26 25 23 23 22 21 20 20 19 18 18 18 17 17 17 16 15 15 16 16 15 16 17 16
5 6 6 6 6 7 4 3 10 9 4 3 5 6 7 9 10 8 6 12 13 6 4 10 9 3 10 9 11 11 11 14 13 13 12 10 9 7 6 7 10 13 19 25 29 31 31 29 27 27 27 26 25 24 24 25 25 25 25 26 27 28 29 29 27 27 26 24 23 22 21 20 20 20 20 19 18 17 17 16 16 16 16 16 16 17
6 4 5 6 6 6 6 7 11 9 5 5 4 6 10 12 12 11 12 16 12 2 1 9 8 2 7 6 8 8 10 13 11 10 10 8 6 5 7 10 14 17 19 22 24 26 30 29 27 27 25 23 23 24 26 28 28 27 27 27 27 28 28 29 30 31 32 28 24 23 22 21 21 21 20 19 18 18 17 17 17 17 17 17 17 18
6 3 3 5 4 5 8 7 9 8 8 4 3 7 14 15 15 15 14 14 9 0 4 6 8 1 6 7 6 5 7 9 8 7 6 5 4 6 10 13 16 18 18 20 25 29 29 27 27 26 23 23 25 27 28 28 28 28 28 28 28 29 28 29 30 31 32 28 23 21 22 22 21 21 20 19 19 19 18 18 18 17 17 18 19 19
4 1 2 4 4 8 9 6 7 8 7 4 4 11 17 15 14 14 13 9 6 5 4 4 5 6 1 7 7 6 7 7 6 5 3 3 5 9 12 14 15 17 21 25 28 28 26 26 27 24 23 27 29 28 28 29 29 30 31 30 29 30 28 29 30 27 27 25 20 21 24 24 23 23 22 21 20 20 20 19 19 18 19 19 20 21
2 2 3 4 4 7 9 6 7 6 5 5 9 16 18 15 14 11 10 7 5 8 4 2 2 8 5 4 8 8 8 7 5 3 2 4 7 11 13 14 16 20 25 27 26 24 25 29 27 24 27 31 29 29 30 32 33 34 34 32 31 31 29 29 28 24 23 22 19 23 25 25 25 24 24 23 22 22 21 20 19 19 20 19 20 21
2 4 4 5 5 7 8 8 6 4 4 6 12 18 17 15 14 10 7 6 6 6 2 1 6 8 6 2 9 10 6 5 3 1 1 6 8 11 14 17 20 24 25 23 20 23 28 30 27 27 28 28 28 31 34 35 37 37 34 32 30 29 29 29 28 25 24 24 25 25 23 22 24 24 25 25 25 24 22 21 20 20 20 20 21 22
2 3 2 4 5 5 8 9 4 3 4 10 16 18 16 13 11 8 6 5 4 4 2 7 10 7 7 3 5 9 4 1 2 1 2 5 8 11 17 20 20 23 24 20 18 24 31 31 29 27 26 27 31 35 37 37 36 33 29 27 27 28 29 29 28 27 25 25 26 24 22 22 23 25 26 24 23 23 21 21 21 21 22 22 22 22
3 2 0 2 4 5 10 8 3 5 8 14 16 15 12 8 6 5 4 4 4 4 5 8 10 9 8 5 1 3 1 0 3 3 3 6 10 14 20 22 24 28 25 19 21 28 32 30 27 25 25 30 35 37 37 34 29 26 24 25 27 27 26 25 25 25 22 20 19 18 19 20 21 23 22 19 18 19 19 20 21 22 24 23 23 24
5 3 2 3 3 7 11 7 3 7 11 12 10 11 8 2 4 4 3 2 4 6 6 9 13 12 9 4 2 3 3 3 2 3 5 10 14 19 23 23 27 32 27 22 26 32 32 30 26 24 28 34 37 36 33 28 24 24 24 25 26 24 22 23 24 22 19 17 15 14 15 15 15 16 16 16 16 17 18 20 22 24 25 26 26 26
4 2 3 3 2 7 10 6 1 5 6 8 8 9 8 5 2 3 4 4 5 7 6 13 16 9 8 4 3 5 5 5 3 2 7 12 17 22 24 24 26 28 24 24 30 33 32 30 27 27 31 36 37 33 27 23 23 25 25 24 24 22 21 22 24 22 19 18 16 15 15 16 16 16 16 17 18 18 19 22 24 25 26 28 28 28
1 3 3 3 1 6 7 6 3 2 5 8 9 9 8 7 7 6 7 7 7 7 8 15 13 7 8 3 4 4 4 6 4 1 8 12 16 21 26 29 28 25 22 25 31 33 31 28 28 31 34 35 33 28 23 23 25 26 25 23 23 23 22 22 23 23 23 22 22 22 22 22 22 22 21 21 21 21 22 23 25 27 28 29 30 32
2 1 2 1 2 6 5 4 3 5 4 5 6 7 6 5 4 5 6 7 9 11 12 12 8 6 8 2 5 4 3 4 4 5 9 11 13 21 29 30 29 27 24 26 30 31 28 27 28 33 34 33 30 25 23 24 25 25 24 24 25 25 23 22 22 23 24 25 26 28 28 27 26 26 24 23 23 23 24 26 28 29 29 29 30 31
4 1 3 4 3 4 3 2 3 5 2 2 4 5 6 4 2 5 7 8 10 11 11 7 5 6 4 4 6 4 4 4 7 8 10 12 15 25 31 30 29 29 27 29 31 28 26 28 30 32 32 29 27 25 24 24 24 25 26 26 27 25 23 22 23 24 25 25 27 28 28 27 27 25 24 23 23 24 25 25 26 26 27 27 27 26
5 1 5 4 4 5 3 3 3 4 2 3 4 5 6 3 3 6 7 9 10 9 7 6 8 8 4 3 6 5 5 6 9 11 13 15 22 29 30 28 27 27 27 30 30 27 28 29 30 30 29 27 27 25 24 23 24 27 29 27 25 24 23 25 27 27 25 25 25 25 25 25 25 24 23 24 24 24 23 23 23 24 25 25 24 22
4 4 4 4 2 4 3 5 7 5 4 3 3 6 6 1 3 4 6 7 7 7 6 6 10 11 8 3 2 2 10 12 11 12 13 21 28 30 31 31 28 25 27 28 26 26 28 30 30 29 26 27 27 25 24 24 25 27 27 24 23 24 26 27 28 26 25 25 24 23 22 22 22 21 22 22 22 21 21 21 22 23 23 22 21 21
2 4 2 3 1 5 5 2 4 5 6 4 4 3 4 1 2 4 5 6 7 9 8 7 10 10 7 5 5 11 16 14 11 9 13 23 28 30 33 33 29 26 26 26 25 27 28 29 30 27 26 28 26 23 25 26 25 25 24 22 24 26 27 27 26 25 24 23 22 21 21 20 19 19 19 19 19 19 20 21 22 22 22 20 19 18
2 2 1 2 3 6 5 3 1 3 5 6 5 2 2 1 3 3 3 4 6 8 8 10 12 7 3 5 9 14 13 9 9 10 14 24 28 31 32 29 26 26 25 25 26 27 28 29 28 26 27 28 24 24 27 28 27 24 23 24 25 26 27 26 25 24 23 22 21 20 19 18 18 18 19 19 19 20 20 21 21 20 19 18 18 18
1 2 2 2 3 4 2 1 3 3 2 2 0 3 3 2 2 2 2 2 3 6 7 11 12 7 3 5 6 12 11 6 10 13 18 26 30 30 28 25 25 25 24 25 26 27 29 29 27 27 28 26 25 28 30 30 27 22 23 26 26 26 27 25 24 23 22 21 19 18 18 19 20 20 20 20 19 20 20 20 20 19 18 18 19 20
2 2 4 6 4 1 2 4 4 3 2 2 2 2 2 2 2 4 3 1 1 4 5 9 12 10 7 3 3 10 14 14 18 21 24 29 30 28 26 24 24 23 23 25 27 28 28 28 28 28 28 26 28 32 30 26 23 21 24 27 27 27 26 24 24 23 21 19 18 18 20 20 21 20 19 19 19 19 20 20 20 21 21 22 23 24
2 3 4 7 5 2 5 5 4 4 4 3 1 0 1 0 1 4 5 4 3 5 6 7 11 10 3 2 4 15 22 25 27 27 29 31 30 27 25 24 22 21 23 25 28 29 29 28 27 28 29 28 30 30 26 21 20 22 25 26 27 27 25 24 23 21 19 18 18 20 20 19 19 19 19 20 21 22 22 23 24 24 25 26 26 25
1 2 4 7 3 4 6 4 4 4 2 1 2 3 3 2 1 3 4 5 5 6 7 7 9 8 1 2 13 23 29 30 29 27 29 31 28 25 23 23 21 21 23 26 29 30 28 26 26 28 29 28 29 27 22 20 21 23 25 25 26 26 24 23 21 19 19 19 19 19 19 19 20 21 22 23 24 24 25 24 24 23 23 22 22 22
1 1 3 6 4 0 1 1 2 1 2 3 3 4 4 4 3 3 2 1 3 6 7 7 9 9 6 10 19 24 27 27 24 24 27 28 26 23 22 21 20 21 24 27 29 29 26 24 25 28 28 27 27 24 21 22 23 24 25 26 26 25 23 21 20 19 19 18 19 20 21 22 23 24 24 24 23 23 22 22 21 20 19 19 19 20
2 3 3 4 6 6 5 4 4 3 4 3 3 7 6 6 7 3 3 3 4 6 7 9 12 14 15 17 19 21 21 20 20 25 27 26 24 22 21 20 19 22 25 28 28 26 23 23 25 27 27 25 25 23 22 24 24 24 25 25 24 22 21 21 20 19 19 19 21 22 24 25 24 24 23 22 21 20 19 19 18 18 19 19 19 20
2 3 4 4 4 5 8 9 9 9 8 8 5 5 7 6 7 4 3 5 7 8 9 12 14 19 23 21 20 21 19 16 19 26 29 26 23 22 21 18 18 22 25 27 27 24 22 23 25 26 24 24 24 22 22 24 25 24 25 24 22 20 20 20 19 19 20 21 23 24 25 24 23 22 21 20 19 18 18 18 18 18 18 18 19 21
3 4 2 3 7 9 12 14 14 11 10 12 11 6 6 8 8 6 7 9 9 8 10 12 14 19 24 23 22 22 17 15 20 27 29 26 23 22 20 16 19 24 26 26 25 23 22 24 26 26 23 23 24 22 23 25 25 24 23 22 21 20 19 19 19 21 23 23 24 24 23 23 22 20 18 17 17 17 17 18 17 18 18 18 19 20
3 4 1 1 8 12 14 16 15 12 11 11 12 11 8 8 11 11 12 13 9 8 13 17 20 22 22 22 22 19 16 19 25 28 27 25 23 22 18 16 20 25 26 26 25 23 22 24 26 25 23 24 24 22 24 25 23 22 21 20 20 19 19 18 20 23 24 24 23 23 22 21 20 18 17 18 18 17 18 17 17 18 18 18 18 18
3 2 2 1 8 13 14 13 11 10 11 11 12 13 13 11 12 13 14 14 13 16 19 22 25 23 21 19 18 18 20 25 28 28 25 24 24 21 16 16 22 26 27 25 25 23 22 24 26 23 22 24 24 22 24 25 23 21 20 20 19 19 18 18 21 24 24 23 22 20 20 19 18 18 18 18 18 17 18 18 18 19 19 18 18 17
2 1 3 0 7 10 8 6 6 8 10 12 13 13 13 13 12 13 13 13 13 16 19 21 22 19 16 15 17 21 23 25 26 26 24 22 22 19 15 16 23 27 26 24 24 23 22 25 25 21 22 24 22 21 23 23 22 21 20 19 19 18 18 19 21 23 22 21 20 18 18 19 19 19 18 17 17 17 18 19 19 19 19 19 18 17
2 1 1 1 6 7 2 4 6 9 8 10 13 13 13 12 10 10 10 10 11 14 16 16 14 12 11 14 19 22 23 24 25 24 23 23 21 16 13 17 24 26 24 24 24 22 22 24 24 21 22 23 21 20 22 22 21 20 19 19 18 17 18 19 21 21 20 19 18 17 19 20 20 20 19 18 18 19 19 20 19 19 20 19 18 17
1 3 2 1 5 5 1 3 10 10 6 5 5 8 12 13 11 11 11 12 14 13 12 11 11 11 14 18 19 18 20 23 23 22 24 25 21 13 12 18 24 24 22 23 23 21 21 23 22 20 22 23 20 19 20 20 20 20 18 17 16 16 17 18 19 19 18 16 16 18 20 21 20 20 20 19 19 20 20 20 19 20 20 19 18 17
1 3 3 1 3 6 6 10 10 6 4 2 2 4 8 10 12 13 13 13 13 13 12 13 15 16 17 17 17 18 21 22 22 23 25 22 16 11 13 19 22 21 20 21 21 20 20 21 20 20 21 21 19 18 18 18 18 18 17 17 17 16 16 17 18 18 17 17 18 20 21 21 20 20 20 19 19 19 19 19 19 19 20 19 19 19
3 2 2 0 2 6 7 8 7 4 1 2 3 3 4 6 9 13 17 18 17 17 18 19 18 18 18 19 19 21 23 22 24 26 22 15 11 10 14 19 20 20 20 20 20 20 20 21 21 22 21 20 18 18 18 18 16 16 16 16 17 16 15 17 18 17 17 19 21 22 21 20 20 19 19 19 18 18 18 18 19 19 20 20 20 20
2 2 2 2 3 4 5 4 4 7 5 2 4 3 2 3 6 10 15 16 16 17 17 16 16 16 18 20 20 20 22 22 24 20 11 8 9 10 14 18 19 19 19 20 21 22 23 24 24 24 23 20 18 19 19 16 15 16 17 18 17 16 17 19 19 18 19 20 22 21 19 19 20 19 19 19 18 18 18 17 17 18 20 20 20 20
3 2 2 2 3 2 5 5 6 11 10 2 3 4 5 4 3 4 9 11 10 12 13 12 13 14 16 17 17 16 17 19 18 9 3 3 9 11 15 17 17 17 18 19 21 23 25 26 26 26 23 19 18 20 18 15 15 17 20 21 18 17 20 21 19 19 20 21 22 20 19 19 19 19 19 19 18 17 17 16 16 17 18 19 20 20
3 2 2 2 2 1 4 6 5 7 7 0 3 5 7 4 3 2 5 10 7 9 13 12 11 12 13 14 14 13 12 11 9 2 1 5 11 12 15 15 14 17 19 20 24 27 28 27 27 26 22 18 19 19 16 16 18 19 22 23 19 19 23 21 19 20 21 21 20 19 18 18 18 19 19 18 18 17 16 16 15 15 17 19 20 20
3 3 2 3 4 3 4 6 4 5 6 1 5 8 9 7 5 4 4 5 3 8 12 11 10 11 11 12 12 11 8 7 6 5 6 11 13 14 15 15 16 19 22 23 26 29 29 28 27 26 21 17 19 18 16 20 21 19 23 24 20 21 23 20 19 20 20 20 19 17 17 17 18 19 19 18 18 17 16 15 15 15 16 17 19 20
3 3 4 5 6 4 4 5 4 6 6 1 8 10 9 10 8 2 6 4 4 9 11 10 9 10 10 11 10 7 5 6 9 13 15 16 16 16 16 18 20 23 25 26 28 30 30 29 28 26 20 19 20 17 17 22 21 20 24 24 20 22 23 20 19 19 18 18 18 16 16 16 17 18 18 18 18 17 16 15 14 15 16 16 17 17
3 3 4 5 5 5 6 5 5 7 5 3 11 14 13 10 5 4 6 3 3 6 8 8 9 10 9 9 9 7 9 12 15 19 20 18 18 19 19 20 23 25 26 27 28 30 30 29 28 25 22 21 19 15 18 23 20 21 25 22 20 22 22 19 19 17 16 17 16 15 15 14 16 17 17 18 19 17 15 13 13 14 15 15 15 15
2 3 3 3 4 4 4 4 6 7 3 9 14 14 12 5 2 4 4 4 3 5 5 7 9 10 9 10 11 12 15 17 18 19 19 18 19 21 21 22 24 26 26 27 28 29 29 29 29 26 24 23 18 15 20 23 20 22 24 21 20 22 21 18 18 16 16 17 15 14 14 13 14 16 17 18 19 17 14 12 11 12 13 14 14 13
2 2 3 4 4 3 3 4 5 7 3 17 17 9 8 8 6 8 8 9 10 10 10 10 10 10 11 12 13 15 16 17 18 18 18 18 21 22 22 23 25 26 27 27 27 29 29 29 29 27 25 24 21 20 24 23 20 22 24 21 21 22 20 18 17 15 16 16 14 13 13 12 13 15 16 17 18 17 15 12 10 10 11 12 13 13
3 3 4 2 3 2 3 5 2 3 9 24 18 6 10 16 17 17 15 13 12 11 10 10 11 12 13 14 15 15 16 18 18 17 17 19 22 22 23 24 25 26 27 26 27 28 28 28 29 27 25 24 24 24 24 21 20 22 23 21 21 21 19 18 16 15 15 15 14 13 12 12 13 14 15 16 17 17 16 12 10 9 9 11 12 12
6 5 2 3 4 4 6 9 9 6 6 19 22 20 21 22 23 22 22 21 18 15 14 14 14 14 15 17 18 18 18 18 18 17 19 21 22 22 23 24 25 26 27 26 26 28 28 27 28 27 25 24 23 24 23 21 20 22 22 21 21 20 19 18 16 16 15 14 13 13 12 13 13 13 14 15 16 17 16 13 10 8 8 10 10 10
6 5 1 2 4 6 13 22 26 25 24 26 29 32 31 29 26 26 27 26 22 20 20 20 19 18 19 20 20 20 19 18 18 19 21 22 22 22 23 24 24 25 26 25 26 27 27 27 27 26 25 23 23 23 22 20 20 21 21 21 20 19 19 18 17 16 14 13 13 13 13 13 12 12 13 13 14 15 15 14 11 8 8 9 9 8
6 7 5 5 4 4 9 12 14 19 25 25 24 26 28 30 30 28 28 27 26 24 24 24 23 22 22 21 22 22 22 20 20 21 21 21 22 22 22 23 23 24 25 25 25 26 27 27 26 25 25 23 22 23 22 20 20 20 20 20 20 19 19 18 17 16 14 13 13 13 12 12 12 12 13 12 12 13 13 12 11 8 8 9 8 8
4 6 5 8 9 8 11 13 17 25 31 29 27 28 29 30 31 29 27 26 26 26 25 25 25 24 23 23 23 23 23 22 21 21 21 22 23 22 22 23 23 23 24 24 24 25 26 26 25 25 24 23 22 22 22 20 19 19 19 19 19 19 19 18 17 16 14 13 13 13 13 12 12 13 13 12 12 12 13 12 10 7 7 8 8 9
4 5 5 6 7 10 15 20 24 28 28 27 27 27 26 25 25 25 24 24 24 25 25 26 25 24 24 24 24 23 24 23 22 22 22 22 22 22 22 22 22 22 23 23 24 24 25 25 25 24 23 22 22 22 21 20 19 18 18 18 18 18 19 19 17 15 14 13 13 14 14 13 13 13 13 13 11 11 11 12 12 9 6 5 7 9
6 6 6 4 5 8 10 11 12 10 12 16 18 18 19 20 20 21 23 23 24 25 24 24 25 25 25 25 24 24 24 24 22 22 23 23 22 22 22 22 22 22 22 22 23 23 24 24 25 24 23 22 21 21 21 20 18 17 17 17 17 17 18 19 18 16 14 13 13 14 15 14 13 13 13 13 12 10 7 8 11 12 10 7 6 7
15 12 9 8 7 10 14 17 15 12 14 19 22 22 23 23 22 23 25 26 25 25 24 24 25 26 26 26 25 25 24 24 22 22 23 23 22 21 22 22 22 22 22 22 23 23 23 23 24 23 22 21 20 20 20 19 18 17 16 16 17 16 17 18 18 17 15 14 14 15 15 16 15 14 14 13 13 12 9 6 7 10 11 10 9 10
Wind_Direction
17 51 52 33 19 7 6 0 335 317 301 294 301 307 307 311 320 330 339 54 32 328 318 335 332 7 64 56 41 36 40 54 61 70 78 82 87 87 84 82 75 61 27 352 342 341 337 332 334 335 335 335 334 333 330 325 322 318 316 312 306 305 299 290 287 283 277 274 269 269 270 271 276 279 276 275 276 275 276 280 285 296 304 307 313 316
42 55 51 25 3 339 334 317 314 311 301 293 301 320 325 333 324 321 324 317 350 323 310 330 336 48 81 64 53 47 46 54 58 73 83 87 91 89 86 78 53 21 351 339 331 330 333 334 337 337 333 331 326 322 320 317 315 312 311 310 306 302 298 292 286 281 276 270 268 269 268 270 273 274 275 276 276 272 274 281 285 289 291 292 299 303
58 57 38 7 340 308 274 271 322 311 288 295 324 336 334 343 324 307 301 314 320 312 304 324 325 83 94 74 64 56 58 65 63 75 86 91 95 87 76 47 9 350 338 334 333 337 340 339 338 333 326 323 320 317 317 316 318 319 315 311 307 304 299 294 288 281 275 270 269 270 268 270 271 272 273 273 276 276 276 280 284 287 289 291 292 292
57 50 19 343 312 311 303 4 354 329 289 321 349 350 329 328 326 307 311 320 315 309 298 306 308 115 112 95 80 68 72 79 76 85 95 95 94 79 42 10 348 340 334 334 337 341 340 333 329 326 324 324 326 326 326 325 325 323 318 313 311 308 303 299 294 287 279 272 268 270 270 268 269 269 270 269 272 275 276 277 278 283 288 289 290 291
67 39 356 313 276 313 340 16 9 347 345 5 16 357 323 314 317 308 311 316 310 306 347 306 303 151 143 123 96 89 85 88 94 103 105 98 85 48 7 351 339 336 335 334 336 333 328 326 326 327 326 329 332 331 328 326 325 323 319 317 315 311 308 305 300 296 289 276 266 270 273 270 269 269 269 269 272 275 275 275 276 280 285 287 290 291
63 43 336 313 288 341 358 15 16 355 335 347 60 344 315 306 309 306 309 318 313 10 69 355 325 325 142 132 114 114 103 102 120 119 105 93 57 10 351 343 340 340 337 331 327 326 325 327 328 328 330 333 333 330 328 327 325 324 321 318 316 313 312 308 304 301 290 273 263 269 272 272 272 271 271 271 275 278 277 277 278 279 283 287 291 291
57 68 281 301 313 1 16 24 23 5 324 328 7 327 309 302 304 306 312 320 316 322 14 40 328 319 129 139 133 132 132 132 137 127 98 61 9 350 344 343 344 341 333 327 325 326 328 328 328 328 330 332 331 330 329 327 324 322 319 316 316 314 312 312 311 306 290 272 263 269 273 273 272 271 271 271 274 277 278 279 278 280 284 287 290 291
35 22 345 315 326 15 13 2 12 359 310 324 335 315 305 304 303 307 311 298 298 315 307 154 317 316 311 145 147 153 149 147 146 127 83 12 348 342 344 344 339 332 327 326 326 329 329 327 325 324 325 326 328 330 328 326 323 320 317 314 313 312 311 313 314 309 297 284 277 278 280 280 274 271 270 269 272 277 279 281 280 282 285 286 288 291
27 14 10 336 1 26 356 339 348 320 285 312 314 304 298 297 297 298 290 276 303 317 266 76 360 321 303 126 160 181 174 160 170 150 6 342 339 339 340 336 330 327 327 326 328 332 330 325 321 320 322 323 326 328 325 323 320 317 316 315 314 315 315 314 313 308 298 289 284 283 283 284 282 280 278 274 276 281 282 282 282 284 286 287 290 290
87 32 357 335 16 17 335 332 326 249 271 300 299 293 281 268 270 274 266 269 291 293 312 11 4 332 306 317 188 203 215 209 261 298 335 340 337 335 335 332 328 328 327 325 329 332 329 324 320 318 320 323 325 326 323 322 321 320 321 323 325 325 322 318 312 306 300 291 286 285 284 285 287 288 285 281 281 283 284 283 283 286 287 289 289 288
127 140 132 27 44 345 315 309 266 223 266 287 295 300 289 250 229 234 243 260 273 299 4 11 351 331 311 306 182 203 246 301 297 312 337 338 334 335 336 334 333 331 327 326 332 333 330 327 323 319 321 325 325 326 326 325 327 331 334 337 338 336 333 331 322 312 311 309 301 297 294 290 291 291 287 285 288 289 289 287 287 287 287 288 289 289
149 172 135 78 35 338 318 300 211 213 261 288 314 325 322 274 200 217 230 244 302 324 357 354 336 322 296 291 110 152 160 159 233 307 325 321 327 333 334 333 334 332 328 329 334 333 331 330 329 322 319 324 326 327 329 332 336 340 341 340 339 339 341 341 333 323 324 328 323 317 315 312 309 306 300 299 298 296 293 291 289 288 287 289 289 289
150 141 107 119 60 353 335 326 167 200 272 329 350 345 350 0 349 332 334 339 317 309 331 337 333 311 279 300 115 164 170 169 193 339 321 314 324 328 328 329 333 333 329 330 333 332 330 329 329 326 323 325 326 327 331 336 338 337 335 333 330 331 336 335 330 325 322 322 321 317 317 317 313 310 307 303 299 295 292 289 289 289 289 290 290 291
93 117 107 151 80 7 349 353 12 313 342 7 4 0 12 9 355 341 338 338 311 296 318 323 317 289 288 318 124 162 169 175 182 310 310 315 327 327 328 330 332 334 330 330 332 331 328 326 327 328 326 326 326 327 330 331 330 329 329 330 327 324 328 329 326 323 318 315 314 312 310 308 305 304 302 299 296 293 291 289 289 289 289 290 291 292
325 100 29 351 21 12 17 33 351 309 339 25 17 10 21 24 354 321 324 328 306 300 311 312 297 293 312 348 125 142 152 176 205 264 311 331 334 329 333 333 333 334 330 329 332 329 326 325 325 325 326 326 325 324 325 328 329 328 325 325 324 321 322 326 326 323 319 315 312 311 309 306 305 304 300 296 293 291 290 289 289 288 288 288 290 291
293 245 68 50 48 31 44 88 292 293 314 22 22 15 10 14 294 276 286 281 281 291 304 310 291 295 323 95 114 131 162 205 243 278 334 350 333 331 336 335 333 332 328 327 330 329 326 324 324 325 325 326 326 321 320 325 330 330 324 320 320 318 319 323 324 321 317 312 310 308 306 305 304 302 298 294 293 291 290 289 289 288 288 289 290 289
314 278 127 109 73 55 66 91 12 343 321 329 4 2 350 339 258 276 284 271 272 282 295 313 307 307 336 106 140 162 210 256 286 323 352 340 327 333 337 335 333 330 326 326 327 328 327 325 324 325 326 326 325 321 317 320 324 327 325 321 320 319 317 319 318 316 314 311 309 306 304 303 302 299 296 295 294 293 291 290 290 291 290 290 289 286
314 292 162 153 112 102 115 88 62 28 332 326 10 343 323 252 211 281 303 305 305 299 299 314 312 310 318 323 159 266 311 317 329 344 342 328 329 334 334 333 332 327 325 326 326 326 326 327 326 324 325 326 324 320 317 316 320 325 324 320 320 319 317 317 316 314 314 313 310 308 306 305 302 300 298 297 296 295 294 294 293 293 292 291 288 284
278 289 158 164 138 135 161 155 80 51 30 69 101 2 336 295 281 309 320 324 321 314 308 313 315 305 302 327 338 328 333 340 341 334 327 330 334 332 330 332 330 326 327 328 328 327 326 327 327 324 324 326 323 320 319 317 317 322 323 319 319 318 316 316 316 314 313 313 312 310 310 308 307 305 303 302 300 298 298 298 296 295 293 290 287 285
266 295 64 189 162 148 180 231 300 51 70 120 141 76 42 298 294 313 321 300 299 311 310 312 317 307 316 353 331 329 345 352 331 323 325 332 334 330 330 331 328 327 328 328 327 327 327 328 327 325 324 324 322 320 321 318 315 315 318 319 319 319 318 316 315 315 314 313 313 312 311 311 309 309 307 305 303 301 299 298 298 296 293 290 287 287
268 259 305 276 166 159 185 11 13 5 53 145 201 19 14 307 252 245 252 219 277 304 307 313 309 288 328 0 325 327 345 340 328 329 327 331 332 329 328 326 326 328 327 327 328 326 327 328 326 326 324 321 321 319 318 316 313 312 316 319 319 319 319 317 317 317 315 314 313 313 313 311 310 310 308 305 303 301 300 299 298 295 293 291 289 288
320 254 288 304 299 293 47 55 42 32 55 27 349 2 353 339 326 302 297 151 200 279 287 304 296 286 315 359 294 322 334 332 333 333 329 330 329 325 325 325 326 329 326 326 327 325 327 328 326 326 323 320 321 321 319 316 313 314 317 319 320 320 320 319 318 317 316 315 314 314 313 312 311 311 309 307 306 303 302 300 297 294 292 291 289 288
339 277 274 287 297 30 70 68 61 69 79 67 28 271 216 191 341 317 316 319 291 270 273 279 277 282 310 133 281 324 334 332 331 331 329 330 328 324 325 326 327 327 325 325 326 327 327 326 325 326 324 322 323 324 324 322 319 318 319 320 321 321 320 319 318 317 316 314 315 316 316 316 315 312 309 307 305 303 301 298 297 295 292 291 290 288
224 264 277 281 268 113 98 94 91 75 72 144 171 190 191 178 257 288 298 319 306 280 290 293 274 274 314 324 310 325 333 330 330 332 329 327 326 324 325 326 326 326 324 325 327 328 327 323 324 327 325 324 325 325 325 324 322 321 320 321 321 319 319 319 319 318 316 316 316 318 317 315 313 310 308 306 304 303 302 300 299 297 295 293 291 290
252 252 290 305 312 57 100 121 133 105 276 246 166 148 156 154 171 230 241 262 269 260 280 296 276 269 297 315 315 324 330 329 332 334 329 326 326 325 325 326 326 324 325 326 328 328 326 322 323 326 326 324 324 324 323 322 323 323 322 321 320 319 319 320 320 318 317 317 317 316 315 314 312 311 309 307 305 304 304 303 302 300 299 296 294 293
287 290 293 324 339 334 323 318 317 319 297 281 143 148 165 166 169 205 270 257 261 272 277 276 271 279 297 306 312 322 326 330 333 331 329 329 327 324 324 325 326 325 325 327 327 325 324 324 323 324 325 324 324 324 322 321 321 321 322 322 320 320 320 320 321 319 317 317 316 315 314 314 313 312 311 309 307 306 306 305 304 302 300 298 296 294
267 273 256 266 289 292 293 294 301 311 298 287 269 190 175 169 177 205 263 258 279 299 281 261 266 287 299 304 313 322 326 331 331 329 330 329 326 324 323 323 323 324 324 325 325 324 324 325 325 324 323 324 325 321 321 322 321 320 322 322 321 321 321 321 321 318 317 316 315 315 315 315 315 314 312 310 309 308 307 306 305 303 300 298 296 294
266 265 245 249 255 259 274 281 287 294 281 277 283 257 186 163 171 191 222 246 278 300 278 270 283 293 296 301 312 322 330 333 328 328 328 325 321 322 322 319 322 325 325 325 325 325 326 327 327 325 322 324 324 320 319 322 322 321 320 320 321 322 321 321 320 318 317 316 315 316 315 315 315 314 313 314 313 311 309 307 305 303 302 301 300 299
288 278 118 192 267 268 271 272 273 274 268 267 274 270 244 196 180 195 223 240 252 257 261 280 294 293 291 298 308 319 329 327 323 323 322 319 319 321 320 320 325 327 326 325 326 327 327 327 328 326 323 324 324 321 320 321 322 321 320 318 320 321 320 320 319 318 318 317 317 316 316 316 316 315 318 320 319 315 313 311 310 312 313 312 312 311
281 272 92 341 285 283 275 265 259 257 261 265 264 266 266 243 212 213 234 242 244 248 258 276 287 286 285 293 303 315 320 318 319 319 317 317 320 321 319 322 328 329 325 324 326 327 327 327 327 324 324 325 323 320 322 323 322 322 320 319 319 319 320 320 319 319 319 318 318 317 317 318 318 322 325 324 322 321 319 320 322 325 327 327 326 324
262 2 71 3 288 291 275 241 238 250 259 269 271 267 264 258 243 235 242 247 248 252 260 274 283 282 282 293 305 313 314 313 316 318 316 318 322 321 318 325 330 328 323 323 326 326 326 328 327 323 324 325 321 319 322 322 321 321 318 318 318 318 320 320 319 319 319 317 318 319 320 322 326 331 330 326 325 326 329 332 335 336 337 338 339 337
226 280 16 291 298 298 210 188 267 282 273 269 271 263 248 242 240 232 231 234 238 253 270 278 278 278 292 308 311 310 310 312 316 318 317 319 323 321 322 329 329 324 321 322 325 325 325 327 326 322 323 325 320 317 319 320 320 320 318 317 318 319 320 320 319 319 318 318 319 320 323 328 333 336 335 332 333 335 339 342 344 345 346 347 348 346
260 288 305 326 302 296 241 294 305 307 294 267 251 238 227 224 232 238 239 240 241 252 272 276 268 279 301 310 308 307 311 314 316 317 317 318 320 320 323 326 324 321 319 321 323 323 324 325 324 321 321 323 318 315 317 319 319 319 317 317 318 319 320 320 318 318 319 319 320 323 328 333 337 338 338 339 340 342 345 347 349 351 352 353 354 353
159 274 299 332 283 290 312 314 302 290 292 321 102 170 206 222 239 248 254 258 256 256 260 264 272 284 296 303 304 304 308 311 311 310 312 311 307 308 317 320 320 319 318 319 320 320 321 323 322 320 319 321 317 314 315 316 316 316 316 317 318 319 321 321 319 321 322 321 323 328 334 338 338 339 340 342 343 346 348 349 352 355 356 357 0 1
164 229 259 208 258 282 308 316 302 293 321 110 137 178 206 233 249 257 265 265 259 259 260 263 271 278 286 294 297 298 301 305 305 305 304 294 283 296 313 317 319 320 318 319 320 319 320 322 322 321 321 321 319 317 315 314 314 314 315 318 318 317 321 323 323 325 325 324 330 336 339 339 338 339 341 342 345 347 348 350 353 357 360 3 5 5
191 231 265 261 243 270 307 321 299 305 311 158 168 195 191 231 250 265 275 262 245 250 256 257 263 272 282 290 292 295 300 304 304 301 289 271 281 300 312 317 319 319 317 318 318 319 322 324 325 326 324 322 321 320 316 315 316 314 314 321 320 317 323 327 328 330 329 330 336 341 341 338 337 338 340 342 345 347 348 351 354 357 2 5 7 7
211 229 275 269 229 259 305 286 267 288 292 231 168 194 186 196 221 256 285 277 253 245 244 248 263 272 279 284 288 296 300 301 304 300 215 272 308 312 312 314 315 314 314 316 316 319 324 326 329 331 327 322 321 320 316 317 319 313 315 323 323 319 326 332 334 333 332 334 339 341 340 338 337 338 339 342 344 344 345 348 351 356 0 2 4 7
208 245 296 294 249 220 298 295 288 290 288 224 137 167 155 126 99 136 275 284 266 224 219 232 256 270 279 287 295 303 301 296 302 314 118 326 322 315 311 311 309 311 317 319 319 323 328 330 332 333 329 321 319 319 315 319 321 314 316 324 325 324 331 336 335 334 334 336 339 340 340 338 336 336 338 340 341 341 341 344 348 351 354 356 359 3
207 256 270 270 265 246 273 292 293 280 289 35 127 146 135 120 125 152 264 283 197 183 203 223 249 270 286 298 305 313 311 302 308 331 342 331 323 315 314 312 311 317 323 323 323 327 331 333 335 335 330 321 319 318 317 323 323 314 317 325 326 328 334 337 334 334 336 337 338 339 339 338 334 334 336 337 337 338 338 339 343 347 349 350 352 355
193 229 214 226 252 243 238 264 265 265 280 114 133 143 133 129 141 187 302 307 168 190 208 218 251 279 292 301 308 313 304 295 304 315 322 322 317 315 314 314 316 323 327 326 326 330 333 335 336 336 331 322 318 317 319 325 323 315 319 326 327 329 334 335 333 335 336 336 338 338 337 334 331 332 333 333 332 334 335 334 339 344 344 344 346 348
183 211 211 231 259 241 226 252 269 269 275 123 129 137 136 139 168 268 312 345 158 198 212 223 262 287 291 291 294 287 282 286 293 302 309 311 311 312 313 315 319 323 327 329 330 332 334 335 337 337 331 323 319 316 320 325 321 315 321 328 326 328 333 334 332 335 336 336 337 334 331 330 329 329 330 328 327 328 331 332 335 340 339 337 341 343
183 189 201 230 251 236 229 251 269 275 246 130 129 138 148 161 273 294 320 340 308 282 276 264 275 286 279 276 277 276 283 290 291 295 301 304 307 311 313 317 320 322 327 331 331 332 334 335 337 336 331 327 323 318 323 326 319 315 324 328 325 328 333 333 332 335 337 336 333 328 326 326 327 327 326 325 323 324 329 330 329 332 333 332 336 341
171 189 227 220 205 226 251 241 273 300 173 145 137 134 171 205 271 303 313 314 303 296 293 281 277 278 272 271 273 275 282 289 290 293 296 299 306 311 313 317 320 322 327 331 332 333 334 335 336 335 332 330 326 323 326 327 320 319 326 327 324 328 333 332 332 336 336 332 329 324 322 323 326 326 325 324 323 324 330 331 323 325 331 332 335 342
177 206 260 252 177 205 254 219 236 357 155 165 171 204 223 231 260 282 289 295 295 289 283 276 274 274 271 272 274 276 282 287 289 291 293 299 306 311 313 317 321 321 325 331 332 332 334 335 335 335 333 331 329 328 329 327 321 322 326 327 325 328 331 332 333 334 333 330 325 321 321 322 324 325 325 325 325 327 330 331 325 323 332 336 338 343
196 195 274 306 219 224 266 259 266 300 204 198 220 249 254 255 265 272 276 282 284 279 276 277 277 276 275 277 279 280 283 286 288 290 293 299 305 310 314 318 321 322 325 329 331 332 333 335 334 334 334 333 330 330 330 328 324 323 326 327 326 328 331 333 332 330 330 330 325 321 320 320 322 326 328 329 330 329 330 331 327 323 327 332 336 345
207 181 128 299 251 266 272 261 259 267 267 255 253 260 264 267 269 271 276 279 277 275 276 278 279 279 279 280 281 281 283 285 288 290 294 299 304 309 314 317 320 322 324 327 330 331 332 334 334 334 334 333 331 330 332 331 326 324 325 327 327 328 332 333 330 329 329 329 326 322 319 319 320 324 328 331 334 332 329 329 327 323 322 323 330 345
202 180 197 239 249 283 274 251 243 257 264 264 263 264 268 270 271 274 277 276 275 276 276 277 280 281 280 280 281 283 286 287 289 292 295 298 302 308 313 316 318 321 323 325 328 330 331 333 334 334 334 333 331 331 332 331 328 325 326 327 327 329 331 330 329 329 328 327 326 322 318 318 318 318 323 331 335 333 329 326 322 319 317 317 324 339
170 164 215 243 231 233 258 271 275 275 274 275 273 270 270 273 275 277 278 277 276 276 274 276 279 280 280 281 281 283 287 288 289 291 293 295 300 307 312 314 316 319 321 323 325 327 329 331 332 333 334 333 331 331 331 331 330 327 327 327 328 329 329 330 330 329 326 326 325 322 318 317 315 314 319 328 335 336 333 327 319 311 308 314 327 335
134 167 219 245 249 253 264 271 274 275 276 276 273 271 272 276 276 276 278 277 275 274 274 276 278 279 280 280 280 281 285 287 288 290 291 294 300 305 309 312 314 317 320 322 323 325 328 329 331 333 334 332 330 329 329 330 329 328 328 328 328 328 328 329 330 329 326 324 323 322 320 317 314 314 316 322 330 337 337 328 320 313 301 301 323 327
170 224 227 225 263 264 255 255 261 271 282 285 286 285 284 284 280 276 276 277 278 278 277 276 277 279 279 278 277 279 283 287 287 287 289 293 299 303 305 308 311 314 317 320 321 323 326 328 330 332 333 332 329 328 328 329 328 329 329 328 328 328 327 327 328 329 329 326 323 322 319 315 314 314 315 318 322 327 332 323 313 310 303 294 304 306
204 224 208 197 237 258 263 272 277 277 280 288 296 296 292 291 288 282 280 282 282 282 279 276 275 277 278 278 278 279 282 285 285 285 288 293 296 299 302 305 309 312 316 318 319 321 324 327 329 331 332 332 329 327 328 328 327 328 330 329 328 328 326 325 326 329 331 328 324 322 319 315 314 313 312 316 319 320 322 317 299 293 288 282 287 295
Height
1540 1543 1549 1553 1557 1558 1558 1558 1557 1555 1554 1554 1552 1550 1546 1542 1537 1533 1534 1536 1538 1538 1532 1528 1528 1530 1537 1542 1543 1546 1544 1542 1541 1541 1543 1544 1546 1547 1548 1549 1549 1549 1548 1548 1547 1546 1544 1541 1538 1534 1530 1528 1526 1524 1522 1520 1519 1517 1515 1514 1512 1511 1509 1507 1505 1504 1502 1501 1499 1498 1497 1497 1496 1496 1495 1493 1491 1491 1490 1489 1488 1487 1486 1486 1486 1486
1542 1548 1557 1560 1559 1560 1559 1559 1558 1556 1554 1552 1549 1547 1543 1541 1539 1535 1535 1536 1537 1537 1531 1526 1528 1532 1541 1544 1545 1547 1545 1543 1543 1543 1545 1546 1547 1548 1549 1549 1549 1549 1548 1548 1547 1545 1542 1538 1535 1532 1529 1526 1524 1523 1521 1520 1518 1516 1514 1513 1511 1509 1508 1506 1504 1502 1500 1499 1497 1496 1495 1494 1493 1493 1492 1491 1490 1489 1488 1487 1486 1484 1483 1483 1482 1482
1545 1555 1560 1560 1560 1560 1559 1558 1557 1554 1553 1549 1545 1545 1544 1543 1542 1537 1534 1535 1535 1535 1530 1527 1528 1534 1543 1545 1546 1548 1547 1547 1546 1546 1548 1548 1549 1549 1549 1549 1549 1549 1548 1546 1545 1541 1538 1535 1532 1531 1529 1526 1524 1522 1520 1518 1516 1514 1512 1510 1509 1507 1505 1503 1501 1499 1498 1496 1495 1494 1492 1491 1491 1490 1489 1489 1488 1487 1485 1485 1484 1483 1482 1481 1480 1480
1550 1559 1561 1561 1561 1559 1556 1556 1556 1552 1547 1546 1546 1548 1549 1546 1546 1541 1534 1533 1533 1533 1533 1530 1527 1533 1543 1544 1546 1550 1548 1548 1548 1548 1550 1549 1550 1550 1549 1549 1549 1548 1547 1544 1541 1538 1536 1534 1532 1530 1527 1525 1523 1521 1518 1516 1514 1511 1510 1508 1506 1505 1502 1500 1498 1496 1495 1494 1493 1492 1490 1489 1488 1487 1486 1486 1485 1484 1483 1482 1482 1482 1481 1480 1479 1479
1557 1561 1562 1562 1561 1559 1556 1554 1558 1554 1546 1545 1549 1552 1551 1547 1549 1545 1538 1534 1530 1531 1535 1531 1523 1526 1536 1540 1544 1550 1549 1547 1549 1550 1550 1550 1549 1549 1549 1549 1548 1547 1545 1542 1539 1538 1536 1533 1531 1528 1526 1524 1521 1519 1517 1515 1512 1510 1508 1506 1504 1502 1500 1498 1496 1493 1491 1490 1489 1489 1488 1487 1485 1485 1484 1483 1482 1481 1481 1480 1479 1479 1478 1478 1477 1477
1560 1563 1563 1562 1559 1557 1556 1557 1561 1560 1551 1548 1550 1552 1550 1547 1547 1545 1541 1537 1528 1527 1532 1531 1526 1523 1528 1538 1544 1546 1548 1547 1549 1550 1549 1549 1548 1548 1548 1548 1547 1545 1543 1542 1539 1537 1534 1531 1529 1527 1524 1522 1520 1518 1516 1513 1511 1508 1506 1504 1501 1499 1497 1495 1493 1490 1488 1485 1485 1485 1485 1484 1483 1482 1481 1481 1480 1479 1478 1477 1477 1476 1476 1475 1474 1474
1561 1563 1563 1561 1559 1557 1556 1559 1562 1563 1557 1550 1548 1550 1547 1546 1547 1544 1542 1540 1532 1528 1529 1532 1536 1528 1523 1535 1543 1544 1547 1548 1548 1548 1547 1547 1547 1547 1548 1546 1545 1544 1542 1541 1538 1535 1532 1530 1527 1525 1523 1521 1518 1516 1514 1511 1509 1506 1503 1501 1499 1497 1494 1492 1489 1487 1484 1482 1482 1482 1482 1481 1480 1479 1478 1478 1478 1477 1476 1475 1474 1474 1473 1472 1471 1471
1562 1561 1562 1561 1558 1557 1559 1560 1562 1564 1561 1552 1549 1549 1545 1543 1545 1543 1543 1540 1533 1531 1529 1530 1535 1529 1519 1529 1542 1542 1544 1546 1545 1546 1545 1545 1546 1546 1546 1545 1543 1542 1540 1537 1535 1533 1531 1528 1525 1523 1521 1519 1517 1514 1512 1509 1506 1503 1501 1498 1496 1494 1491 1489 1486 1484 1482 1481 1480 1480 1479 1478 1477 1476 1475 1475 1474 1474 1473 1472 1471 1471 1470 1469 1468 1467
1565 1562 1565 1562 1557 1560 1563 1563 1563 1564 1562 1554 1550 1548 1544 1543 1542 1542 1542 1538 1534 1534 1529 1524 1529 1529 1519 1525 1540 1540 1537 1542 1542 1541 1542 1543 1545 1545 1544 1543 1541 1540 1538 1535 1533 1531 1529 1526 1523 1521 1519 1518 1516 1513 1510 1507 1503 1500 1497 1495 1493 1491 1488 1486 1484 1482 1481 1479 1477 1476 1475 1474 1473 1473 1472 1471 1471 1470 1470 1469 1469 1468 1467 1466 1465 1464
1566 1564 1566 1563 1562 1564 1564 1563 1563 1563 1561 1555 1551 1546 1541 1540 1540 1540 1539 1535 1537 1537 1527 1523 1529 1532 1522 1517 1527 1530 1530 1536 1538 1538 1540 1542 1544 1544 1542 1541 1539 1537 1535 1533 1531 1529 1527 1524 1522 1519 1518 1516 1514 1512 1508 1504 1501 1497 1494 1492 1490 1487 1485 1482 1480 1478 1477 1476 1474 1472 1471 1471 1471 1470 1469 1468 1467 1467 1466 1466 1465 1465 1464 1463 1462 1461
1566 1566 1567 1565 1566 1567 1564 1562 1561 1562 1560 1554 1549 1541 1532 1531 1534 1538 1536 1533 1534 1529 1524 1527 1530 1534 1529 1515 1516 1525 1531 1537 1539 1538 1539 1541 1543 1542 1541 1540 1538 1536 1534 1532 1530 1528 1526 1523 1520 1518 1516 1514 1512 1509 1506 1502 1499 1496 1493 1490 1488 1485 1483 1480 1478 1475 1473 1472 1471 1470 1469 1469 1468 1467 1466 1465 1464 1464 1463 1463 1462 1462 1461 1460 1459 1458
1564 1564 1565 1566 1568 1567 1563 1559 1559 1561 1559 1553 1549 1540 1530 1526 1528 1532 1529 1530 1532 1525 1522 1526 1526 1533 1531 1516 1519 1532 1536 1539 1540 1539 1541 1542 1541 1541 1540 1539 1537 1535 1533 1531 1529 1526 1524 1521 1519 1517 1515 1512 1510 1507 1504 1500 1497 1494 1491 1489 1487 1485 1482 1479 1476 1474 1472 1470 1469 1468 1467 1466 1465 1464 1463 1462 1461 1461 1460 1460 1459 1458 1457 1456 1455 1454
1560 1564 1565 1567 1568 1567 1563 1557 1556 1558 1556 1553 1549 1543 1538 1533 1532 1533 1528 1529 1532 1526 1523 1524 1528 1534 1525 1515 1524 1534 1536 1539 1539 1539 1541 1541 1541 1540 1539 1537 1534 1533 1531 1530 1528 1525 1522 1520 1517 1515 1513 1510 1507 1504 1501 1498 1496 1493 1490 1488 1486 1484 1481 1477 1475 1473 1471 1470 1468 1466 1465 1464 1463 1462 1461 1460 1459 1458 1458 1457 1456 1455 1453 1452 1450 1449
1558 1563 1565 1566 1566 1567 1566 1561 1560 1559 1556 1556 1554 1550 1551 1551 1553 1551 1540 1537 1536 1527 1524 1527 1532 1532 1520 1516 1529 1533 1534 1538 1538 1539 1540 1540 1540 1539 1538 1536 1533 1531 1530 1529 1527 1524 1521 1519 1516 1514 1511 1508 1505 1502 1499 1497 1495 1492 1489 1487 1484 1482 1479 1476 1474 1471 1470 1468 1467 1465 1464 1462 1461 1460 1459 1458 1457 1456 1455 1454 1453 1451 1450 1448 1446 1445
1561 1560 1563 1565 1566 1567 1568 1567 1568 1565 1561 1560 1559 1558 1559 1565 1572 1565 1551 1551 1550 1537 1530 1529 1529 1526 1519 1523 1531 1533 1535 1538 1538 1539 1538 1538 1540 1539 1536 1535 1533 1530 1529 1528 1526 1523 1520 1517 1515 1512 1509 1506 1503 1500 1498 1495 1493 1490 1488 1485 1483 1480 1477 1475 1472 1470 1468 1466 1464 1463 1462 1460 1459 1457 1456 1455 1455 1453 1452 1451 1449 1448 1446 1444 1442 1441
1561 1558 1566 1568 1567 1568 1568 1570 1570 1567 1563 1559 1558 1561 1565 1570 1574 1569 1559 1559 1559 1550 1537 1527 1523 1519 1520 1528 1532 1533 1536 1538 1538 1538 1537 1538 1539 1537 1534 1533 1531 1529 1528 1526 1524 1521 1519 1516 1513 1510 1507 1504 1501 1499 1496 1494 1491 1488 1486 1483 1481 1478 1475 1473 1471 1469 1466 1464 1462 1460 1459 1457 1456 1455 1453 1452 1451 1450 1448 1447 1445 1444 1442 1440 1438 1436
1563 1558 1565 1569 1568 1569 1569 1569 1569 1567 1563 1558 1559 1566 1571 1573 1574 1572 1564 1555 1554 1552 1536 1524 1521 1517 1520 1528 1531 1534 1535 1533 1535 1536 1538 1539 1537 1535 1534 1531 1530 1528 1526 1524 1522 1520 1517 1514 1511 1508 1505 1502 1500 1497 1495 1492 1489 1487 1484 1481 1478 1476 1473 1471 1468 1466 1464 1462 1459 1457 1456 1454 1453 1451 1450 1448 1447 1446 1444 1443 1441 1439 1437 1435 1434 1432
1577 1564 1560 1565 1567 1569 1570 1569 1568 1569 1566 1562 1566 1571 1570 1571 1573 1571 1565 1556 1554 1552 1534 1526 1530 1527 1524 1525 1526 1530 1531 1530 1533 1536 1538 1536 1533 1533 1531 1529 1529 1527 1524 1522 1520 1518 1515 1512 1509 1506 1503 1501 1498 1495 1493 1490 1487 1484 1482 1479 1476 1473 1471 1468 1466 1463 1461 1458 1456 1454 1452 1451 1450 1448 1447 1445 1444 1442 1440 1439 1437 1436 1433 1432 1431 1429
1583 1568 1558 1563 1565 1567 1571 1569 1566 1568 1568 1567 1571 1573 1571 1573 1572 1567 1567 1566 1566 1560 1541 1531 1534 1530 1524 1523 1525 1527 1528 1531 1534 1536 1535 1532 1530 1530 1527 1525 1526 1524 1522 1520 1517 1515 1513 1510 1507 1504 1501 1498 1495 1493 1491 1488 1485 1482 1480 1477 1474 1471 1468 1466 1463 1460 1458 1456 1454 1452 1450 1448 1447 1445 1444 1442 1440 1439 1437 1435 1434 1432 1430 1429 1428 1426
1582 1573 1561 1560 1563 1566 1567 1565 1562 1563 1568 1569 1570 1572 1574 1575 1573 1571 1574 1574 1572 1569 1556 1543 1536 1527 1520 1524 1529 1529 1529 1532 1533 1532 1531 1529 1528 1527 1525 1523 1523 1522 1520 1518 1515 1513 1510 1508 1505 1502 1499 1496 1493 1491 1488 1486 1483 1480 1478 1475 1471 1469 1466 1463 1460 1458 1455 1453 1451 1449 1448 1446 1444 1442 1441 1439 1438 1436 1434 1433 1431 1429 1427 1426 1424 1423
1581 1577 1566 1558 1559 1561 1561 1561 1561 1562 1566 1568 1568 1574 1577 1575 1574 1574 1575 1573 1574 1575 1569 1560 1545 1524 1517 1525 1530 1529 1529 1531 1530 1528 1527 1526 1525 1525 1524 1522 1521 1519 1518 1516 1514 1511 1508 1505 1502 1499 1497 1494 1491 1489 1486 1483 1480 1477 1475 1473 1469 1466 1463 1461 1458 1456 1453 1451 1449 1447 1445 1444 1441 1440 1438 1436 1435 1433 1431 1430 1428 1426 1424 1423 1421 1420
1581 1577 1572 1563 1557 1555 1559 1566 1567 1566 1568 1568 1570 1575 1578 1578 1577 1574 1571 1571 1577 1577 1573 1574 1560 1530 1519 1527 1528 1526 1526 1526 1526 1526 1524 1524 1524 1523 1522 1521 1519 1518 1516 1514 1512 1509 1506 1503 1500 1497 1495 1492 1489 1486 1483 1480 1478 1475 1473 1471 1468 1464 1461 1459 1456 1454 1452 1449 1447 1445 1443 1441 1439 1437 1436 1434 1432 1430 1428 1427 1425 1423 1421 1419 1418 1416
1585 1580 1576 1567 1559 1560 1566 1570 1570 1569 1570 1571 1573 1575 1576 1579 1579 1577 1573 1571 1575 1575 1570 1574 1566 1534 1519 1525 1525 1522 1522 1522 1524 1525 1524 1524 1523 1522 1520 1519 1517 1516 1515 1513 1510 1506 1503 1500 1498 1495 1492 1490 1486 1483 1480 1478 1476 1474 1471 1468 1466 1462 1460 1457 1454 1452 1450 1448 1445 1443 1441 1439 1437 1435 1433 1431 1429 1427 1425 1423 1421 1419 1417 1415 1414 1412
1586 1580 1576 1564 1556 1563 1572 1572 1572 1574 1573 1572 1574 1576 1577 1579 1579 1579 1579 1579 1580 1575 1568 1573 1564 1531 1515 1521 1521 1519 1520 1520 1521 1523 1523 1522 1520 1520 1519 1517 1516 1515 1512 1510 1507 1503 1501 1498 1496 1494 1490 1488 1484 1481 1478 1476 1473 1471 1469 1466 1463 1460 1457 1455 1452 1450 1448 1446 1443 1441 1439 1437 1434 1432 1430 1427 1425 1423 1421 1419 1417 1415 1413 1412 1410 1408
1583 1576 1574 1564 1555 1557 1562 1564 1567 1572 1571 1567 1569 1576 1577 1579 1584 1584 1583 1586 1584 1572 1567 1573 1559 1525 1513 1519 1518 1517 1518 1518 1521 1523 1522 1520 1518 1517 1516 1515 1514 1513 1510 1508 1504 1501 1500 1497 1495 1492 1489 1486 1482 1479 1477 1474 1471 1469 1467 1464 1461 1458 1455 1453 1450 1449 1446 1444 1441 1439 1437 1434 1431 1429 1426 1424 1422 1419 1417 1415 1414 1412 1410 1409 1407 1405
1583 1576 1573 1568 1563 1560 1558 1557 1559 1562 1564 1562 1566 1577 1579 1580 1584 1581 1578 1581 1576 1563 1561 1562 1545 1518 1512 1517 1517 1517 1517 1516 1519 1521 1519 1518 1517 1515 1515 1513 1512 1511 1508 1505 1502 1500 1498 1496 1493 1490 1487 1484 1481 1478 1475 1472 1469 1467 1464 1462 1459 1456 1453 1451 1449 1447 1444 1442 1439 1436 1434 1431 1428 1426 1423 1421 1419 1416 1414 1412 1411 1409 1408 1406 1405 1403
1585 1579 1574 1570 1569 1568 1564 1561 1560 1561 1562 1560 1562 1571 1577 1580 1581 1579 1577 1572 1563 1559 1556 1549 1538 1523 1513 1514 1515 1516 1516 1516 1517 1516 1515 1515 1515 1513 1513 1512 1511 1509 1507 1504 1501 1498 1496 1494 1491 1488 1484 1482 1479 1476 1474 1471 1468 1465 1462 1459 1457 1454 1451 1449 1447 1445 1442 1440 1437 1434 1431 1428 1426 1423 1421 1418 1416 1414 1412 1410 1409 1407 1405 1404 1402 1400
1584 1576 1575 1575 1572 1570 1566 1563 1563 1563 1564 1561 1559 1563 1570 1577 1580 1580 1576 1563 1557 1561 1551 1534 1534 1532 1518 1514 1516 1514 1515 1516 1515 1514 1513 1513 1512 1512 1511 1510 1509 1507 1504 1501 1499 1496 1494 1491 1488 1485 1482 1479 1477 1474 1472 1469 1466 1463 1460 1457 1454 1452 1450 1448 1445 1442 1440 1437 1434 1432 1429 1426 1424 1421 1418 1416 1413 1411 1410 1408 1407 1405 1403 1401 1399 1397
1584 1575 1577 1581 1575 1570 1568 1564 1562 1562 1561 1558 1558 1559 1562 1569 1575 1575 1570 1560 1559 1562 1547 1529 1533 1534 1522 1516 1517 1515 1515 1516 1514 1513 1513 1512 1511 1510 1509 1507 1506 1504 1501 1499 1496 1494 1491 1488 1485 1483 1480 1477 1475 1472 1469 1466 1463 1461 1458 1455 1453 1451 1448 1446 1443 1440 1437 1434 1432 1429 1427 1424 1421 1419 1416 1414 1411 1410 1408 1406 1404 1402 1400 1398 1396 1394
1584 1575 1579 1584 1578 1569 1563 1559 1558 1560 1559 1557 1557 1557 1556 1559 1564 1565 1562 1559 1559 1555 1543 1535 1536 1531 1522 1518 1516 1515 1516 1516 1514 1513 1512 1511 1509 1507 1506 1505 1503 1501 1498 1496 1493 1491 1489 1486 1483 1480 1477 1475 1472 1470 1467 1464 1461 1458 1456 1453 1451 1449 1446 1443 1440 1437 1435 1432 1430 1427 1424 1422 1419 1416 1414 1412 1410 1408 1406 1404 1402 1400 1398 1396 1393 1392
1584 1577 1580 1585 1577 1562 1553 1554 1557 1556 1556 1556 1555 1554 1554 1553 1555 1557 1557 1556 1556 1550 1542 1539 1537 1527 1519 1517 1515 1515 1516 1514 1512 1512 1510 1509 1507 1505 1504 1503 1500 1498 1496 1493 1491 1489 1486 1483 1481 1478 1475 1473 1470 1468 1466 1463 1459 1456 1454 1451 1449 1447 1444 1441 1438 1435 1433 1430 1428 1425 1423 1420 1417 1415 1412 1411 1408 1406 1404 1402 1400 1398 1395 1393 1391 1389
1584 1580 1578 1581 1574 1556 1549 1555 1554 1552 1556 1560 1558 1553 1551 1550 1549 1550 1549 1548 1548 1545 1540 1539 1535 1522 1513 1513 1513 1513 1513 1512 1510 1508 1507 1506 1505 1503 1501 1500 1499 1497 1494 1491 1489 1486 1484 1481 1478 1476 1473 1471 1468 1467 1464 1461 1457 1454 1452 1449 1447 1445 1442 1439 1436 1433 1430 1428 1426 1424 1421 1418 1415 1413 1411 1409 1407 1405 1403 1400 1398 1396 1394 1391 1389 1387
1586 1581 1576 1579 1572 1553 1548 1552 1551 1552 1551 1546 1543 1543 1541 1542 1542 1541 1540 1539 1539 1539 1537 1534 1525 1515 1510 1512 1511 1509 1510 1510 1508 1506 1505 1502 1501 1501 1500 1499 1498 1495 1493 1490 1487 1484 1482 1479 1477 1474 1471 1469 1467 1465 1462 1459 1456 1452 1450 1447 1445 1442 1440 1436 1434 1431 1428 1426 1424 1422 1419 1416 1414 1412 1410 1408 1406 1403 1401 1399 1397 1395 1392 1390 1388 1386
1589 1584 1578 1580 1574 1557 1550 1551 1551 1549 1537 1525 1528 1534 1534 1535 1537 1535 1533 1532 1531 1531 1530 1524 1516 1512 1513 1512 1510 1508 1508 1507 1506 1505 1504 1502 1500 1500 1499 1498 1497 1494 1491 1489 1486 1483 1480 1477 1475 1473 1470 1467 1465 1463 1460 1457 1454 1451 1448 1445 1443 1440 1437 1434 1432 1429 1427 1425 1423 1420 1417 1415 1413 1411 1408 1406 1404 1402 1400 1398 1396 1394 1391 1389 1387 1385
1587 1585 1580 1581 1578 1564 1554 1554 1549 1535 1524 1525 1533 1534 1533 1535 1536 1534 1530 1526 1526 1526 1522 1519 1516 1513 1513 1512 1511 1509 1507 1505 1505 1503 1502 1501 1499 1499 1498 1496 1494 1492 1489 1487 1484 1481 1478 1475 1473 1470 1467 1465 1463 1461 1458 1455 1452 1449 1446 1443 1440 1438 1435 1432 1429 1427 1425 1423 1421 1418 1416 1414 1411 1409 1407 1405 1403 1401 1399 1397 1395 1393 1391 1388 1386 1384
1583 1583 1579 1578 1576 1564 1555 1555 1548 1529 1520 1529 1536 1534 1535 1538 1537 1536 1529 1518 1518 1520 1517 1515 1514 1512 1512 1512 1510 1509 1506 1505 1503 1500 1499 1499 1498 1498 1497 1494 1492 1490 1487 1485 1482 1479 1476 1473 1470 1467 1465 1463 1461 1459 1456 1453 1449 1446 1443 1441 1438 1436 1433 1430 1427 1425 1423 1421 1419 1416 1414 1412 1410 1408 1406 1404 1402 1400 1398 1396 1394 1392 1390 1388 1386 1384
1580 1580 1579 1575 1570 1565 1560 1554 1545 1529 1520 1525 1531 1531 1533 1534 1533 1536 1530 1514 1509 1513 1513 1512 1512 1511 1511 1510 1508 1508 1507 1504 1500 1497 1497 1498 1497 1496 1495 1492 1491 1488 1485 1483 1480 1477 1474 1470 1467 1465 1462 1461 1459 1457 1454 1450 1447 1444 1441 1438 1436 1434 1431 1428 1426 1424 1422 1419 1417 1415 1413 1411 1409 1407 1405 1403 1401 1399 1397 1395 1394 1392 1390 1388 1386 1384
1581 1580 1579 1575 1568 1568 1566 1556 1546 1535 1520 1517 1523 1527 1529 1531 1530 1537 1536 1518 1504 1506 1509 1510 1510 1509 1508 1507 1506 1506 1506 1503 1498 1496 1496 1497 1496 1495 1493 1491 1489 1486 1483 1481 1477 1474 1472 1468 1465 1463 1460 1459 1457 1455 1451 1448 1444 1442 1439 1436 1434 1431 1429 1426 1424 1422 1420 1418 1416 1414 1412 1410 1408 1406 1404 1402 1400 1398 1396 1395 1393 1392 1390 1388 1386 1384
1582 1581 1582 1581 1573 1568 1567 1559 1551 1540 1521 1514 1521 1528 1530 1531 1532 1537 1533 1513 1501 1504 1507 1507 1507 1506 1505 1505 1504 1504 1503 1499 1494 1494 1496 1496 1494 1493 1491 1489 1487 1484 1481 1478 1474 1471 1468 1465 1462 1460 1458 1457 1455 1452 1449 1445 1442 1440 1437 1434 1432 1429 1427 1424 1422 1420 1418 1416 1414 1412 1410 1409 1407 1405 1403 1401 1399 1397 1395 1394 1393 1391 1389 1388 1386 1384
1582 1580 1580 1579 1571 1565 1565 1559 1548 1533 1518 1515 1523 1528 1529 1531 1535 1534 1517 1497 1497 1506 1505 1503 1505 1503 1502 1503 1502 1501 1501 1497 1492 1492 1494 1493 1491 1491 1489 1486 1484 1481 1478 1475 1472 1468 1466 1463 1460 1457 1456 1454 1452 1449 1446 1442 1440 1438 1435 1433 1430 1428 1425 1423 1420 1418 1417 1415 1413 1411 1409 1408 1406 1404 1402 1400 1398 1397 1395 1393 1392 1390 1389 1387 1386 1384
1578 1578 1574 1572 1566 1560 1562 1559 1546 1528 1516 1517 1524 1526 1528 1532 1532 1522 1502 1492 1499 1503 1500 1500 1502 1499 1499 1501 1500 1499 1498 1496 1494 1492 1491 1490 1489 1487 1486 1484 1481 1478 1476 1472 1469 1466 1463 1460 1458 1455 1453 1452 1449 1447 1444 1440 1438 1436 1434 1431 1429 1426 1424 1421 1419 1417 1415 1413 1411 1410 1408 1407 1405 1403 1401 1399 1397 1396 1394 1393 1391 1390 1388 1387 1385 1384
1565 1570 1569 1569 1564 1556 1554 1556 1546 1527 1515 1518 1523 1526 1529 1529 1518 1504 1495 1496 1499 1499 1498 1499 1498 1496 1498 1498 1497 1496 1495 1493 1492 1490 1488 1488 1486 1484 1483 1482 1479 1476 1474 1471 1467 1464 1461 1458 1455 1453 1451 1449 1447 1444 1441 1438 1436 1434 1432 1429 1427 1425 1422 1420 1418 1415 1413 1412 1410 1409 1407 1405 1404 1402 1400 1398 1396 1395 1393 1392 1390 1389 1388 1386 1385 1384
1555 1556 1552 1552 1552 1548 1550 1555 1543 1520 1510 1515 1521 1524 1526 1519 1504 1495 1496 1497 1497 1496 1497 1496 1494 1495 1495 1494 1494 1494 1491 1490 1489 1487 1486 1485 1482 1481 1480 1478 1476 1474 1471 1468 1465 1462 1459 1456 1453 1451 1449 1446 1445 1442 1439 1436 1434 1432 1430 1427 1425 1423 1421 1419 1416 1414 1412 1410 1409 1407 1406 1404 1403 1401 1399 1397 1395 1393 1392 1391 1389 1388 1387 1386 1384 1383
1552 1547 1538 1536 1539 1541 1542 1538 1523 1506 1505 1511 1511 1510 1510 1504 1496 1495 1497 1495 1494 1494 1494 1493 1492 1492 1492 1491 1491 1490 1488 1487 1486 1484 1483 1482 1479 1478 1477 1475 1474 1471 1468 1466 1463 1459 1457 1454 1451 1449 1447 1444 1442 1439 1437 1434 1432 1430 1428 1425 1423 1421 1419 1417 1415 1412 1411 1409 1407 1406 1405 1403 1402 1400 1398 1396 1394 1392 1391 1390 1388 1387 1386 1385 1384 1382
1543 1541 1538 1536 1537 1534 1527 1516 1506 1502 1505 1507 1502 1499 1498 1497 1495 1496 1495 1493 1493 1492 1491 1490 1490 1489 1488 1488 1487 1486 1485 1484 1482 1481 1480 1478 1476 1475 1474 1472 1470 1468 1466 1464 1460 1457 1454 1452 1449 1447 1444 1442 1440 1437 1435 1433 1430 1428 1426 1424 1422 1419 1417 1415 1413 1411 1409 1408 1406 1405 1403 1402 1401 1399 1398 1396 1393 1391 1390 1388 1387 1386 1385 1384 1384 1382
1537 1540 1541 1538 1535 1530 1519 1507 1503 1502 1501 1500 1498 1495 1494 1494 1493 1493 1492 1491 1490 1489 1488 1487 1487 1486 1486 1485 1483 1482 1482 1480 1479 1478 1476 1474 1473 1472 1470 1469 1467 1465 1463 1461 1458 1455 1452 1449 1447 1444 1442 1440 1438 1435 1433 1430 1428 1426 1424 1422 1420 1418 1415 1413 1412 1410 1408 1406 1405 1404 1402 1401 1400 1398 1397 1395 1393 1391 1389 1387 1386 1385 1384 1384 1383 1382
1536 1539 1539 1536 1534 1530 1514 1499 1498 1500 1496 1495 1495 1492 1491 1491 1490 1489 1489 1487 1486 1486 1485 1484 1483 1483 1483 1481 1480 1479 1478 1477 1476 1475 1473 1472 1470 1468 1467 1466 1464 1462 1460 1458 1455 1452 1449 1446 1444 1442 1439 1437 1435 1432 1430 1428 1426 1424 1422 1420 1418 1416 1414 1412 1410 1409 1407 1405 1404 1402 1401 1400 1398 1397 1396 1394 1392 1390 1389 1387 1385 1384 1383 1383 1382 1381
1533 1538 1536 1531 1529 1524 1509 1497 1496 1497 1492 1491 1492 1489 1487 1487 1486 1485 1485 1484 1483 1483 1481 1480 1480 1480 1479 1478 1477 1476 1474 1474 1473 1471 1470 1469 1467 1465 1464 1462 1460 1459 1457 1455 1453 1450 1447 1444 1442 1439 1437 1434 1432 1430 1428 1426 1424 1422 1420 1417 1416 1414 1412 1410 1408 1407 1406 1404 1402 1401 1400 1398 1397 1395 1394 1393 1391 1389 1387 1386 1385 1384 1383 1382 1381 1380
1534 1535 1529 1525 1522 1517 1506 1498 1495 1492 1487 1486 1486 1485 1484 1484 1483 1482 1482 1481 1480 1479 1478 1477 1477 1476 1476 1475 1474 1473 1471 1470 1469 1468 1467 1465 1464 1462 1461 1459 1457 1456 1453 1452 1450 1447 1445 1442 1439 1436 1434 1432 1430 1428 1425 1423 1422 1420 1417 1415 1414 1412 1410 1408 1407 1405 1404 1403 1401 1400 1398 1397 1396 1394 1392 1391 1390 1388 1386 1385 1383 1382 1382 1381 1380 1380
1531 1527 1522 1523 1522 1511 1499 1494 1493 1490 1485 1481 1482 1483 1482 1482 1481 1480 1478 1477 1476 1475 1475 1474 1473 1472 1472 1472 1471 1470 1468 1467 1466 1465 1463 1462 1461 1459 1457 1456 1454 1452 1450 1449 1447 1445 1443 1440 1437 1434 1432 1429 1428 1425 1423 1421 1419 1417 1415 1413 1411 1409 1408 1406 1404 1403 1402 1401 1400 1399 1397 1396 1394 1393 1391 1389 1388 1387 1386 1384 1382 1381 1380 1380 1379 1379
1519 1515 1513 1516 1511 1499 1491 1489 1491 1490 1485 1481 1481 1482 1480 1479 1479 1477 1475 1474 1473 1472 1471 1471 1470 1468 1467 1467 1467 1466 1465 1464 1463 1462 1460 1459 1458 1456 1454 1452 1451 1449 1448 1446 1444 1442 1440 1438 1435 1433 1430 1428 1425 1423 1421 1419 1417 1415 1413 1411 1409 1407 1406 1404 1402 1401 1400 1399 1398 1397 1396 1395 1393 1391 1390 1388 1386 1385 1384 1383 1382 1380 1379 1378 1378 1377